TMG617 WSSS-WIHH

Flight info

Callsign TMG617
Flight time 1h 29m
Altitude 37000
Route ANITO B470 BUNIK
Aircraft B738/M-SDFGHIRWY/EB2

Departure

Time 2026-05-08 07:27
Airport Singapore Changi Airport (WSSS)

Arrival

Time 2026-05-08 08:57
Airport Halim Perdanakusuma International Airport (WIHH)
Time Latitude Longitude Altitude Speed Heading
2026-05-08 07:11 1.35307 103.98913 23 ft 0 kts 291°
2026-05-08 07:19 1.35306 103.98914 23 ft 2 kts 291°
2026-05-08 07:19 1.35301 103.98929 25 ft 2 kts 291°
2026-05-08 07:20 1.35295 103.98945 26 ft 2 kts 291°
2026-05-08 07:20 1.35289 103.98960 25 ft 2 kts 284°
2026-05-08 07:20 1.35288 103.98976 26 ft 2 kts 235°
2026-05-08 07:20 1.35295 103.98983 25 ft 1 kts 198°
2026-05-08 07:21 1.35298 103.98984 24 ft 0 kts 195°
2026-05-08 07:22 1.35241 103.98979 22 ft 15 kts 179°
2026-05-08 07:22 1.35114 103.98953 22 ft 19 kts 174°
2026-05-08 07:22 1.34993 103.98966 24 ft 14 kts 173°
2026-05-08 07:23 1.34902 103.98995 23 ft 14 kts 149°
2026-05-08 07:23 1.34852 103.99070 21 ft 13 kts 110°
2026-05-08 07:23 1.34877 103.99144 21 ft 13 kts 25°
2026-05-08 07:23 1.34956 103.99180 24 ft 12 kts 25°
2026-05-08 07:24 1.35035 103.99211 23 ft 12 kts 21°
2026-05-08 07:24 1.35111 103.99242 21 ft 12 kts 24°
2026-05-08 07:24 1.35187 103.99276 24 ft 14 kts 24°
2026-05-08 07:24 1.35308 103.99330 28 ft 23 kts 21°
2026-05-08 07:25 1.35456 103.99390 30 ft 23 kts 22°
2026-05-08 07:25 1.35550 103.99430 27 ft 22 kts 22°
2026-05-08 07:25 1.35869 103.99563 27 ft 18 kts 22°
2026-05-08 07:26 1.35912 103.99591 27 ft 8 kts 77°
2026-05-08 07:26 1.35895 103.99659 26 ft 8 kts 130°
2026-05-08 07:26 1.35850 103.99674 25 ft 14 kts 170°
2026-05-08 07:26 1.35717 103.99696 25 ft 25 kts 171°
2026-05-08 07:27 1.35517 103.99619 26 ft 53 kts 207°
2026-05-08 07:27 1.34962 103.99376 26 ft 124 kts 202°
2026-05-08 07:27 1.33964 103.98961 104 ft 183 kts 202°
2026-05-08 07:27 1.32780 103.98447 1067 ft 176 kts 204°
2026-05-08 07:28 1.31727 103.97976 2378 ft 162 kts 206°
2026-05-08 07:28 1.30631 103.97475 2801 ft 189 kts 204°
2026-05-08 07:28 1.29306 103.96906 2956 ft 223 kts 202°
2026-05-08 07:28 1.27824 103.96326 3411 ft 237 kts 201°
2026-05-08 07:29 1.26166 103.95704 3532 ft 270 kts 199°
2026-05-08 07:29 1.24250 103.95412 3956 ft 289 kts 172°
2026-05-08 07:29 1.22442 103.96237 4669 ft 296 kts 136°
2026-05-08 07:29 1.21348 103.97963 5513 ft 293 kts 114°
2026-05-08 07:30 1.20578 103.99835 5865 ft 288 kts 111°
2026-05-08 07:30 1.19848 104.01706 6025 ft 289 kts 112°
2026-05-08 07:30 1.19169 104.03566 6025 ft 287 kts 108°
2026-05-08 07:30 1.18576 104.05461 6054 ft 285 kts 108°
2026-05-08 07:31 1.17997 104.07365 6015 ft 284 kts 107°
2026-05-08 07:31 1.17467 104.09256 6015 ft 281 kts 105°
2026-05-08 07:31 1.17003 104.11154 6258 ft 287 kts 103°
2026-05-08 07:31 1.16580 104.13109 7027 ft 286 kts 102°
2026-05-08 07:32 1.16169 104.15057 7776 ft 289 kts 102°
2026-05-08 07:32 1.15732 104.17033 8511 ft 291 kts 109°
2026-05-08 07:32 1.14639 104.18711 9208 ft 291 kts 140°
2026-05-08 07:32 1.13082 104.19978 9935 ft 293 kts 140°
2026-05-08 07:33 1.11552 104.21378 10428 ft 305 kts 135°
2026-05-08 07:33 1.09948 104.22876 10657 ft 323 kts 145°
2026-05-08 07:33 1.07896 104.23839 11103 ft 333 kts 166°
2026-05-08 07:33 1.05568 104.24029 11691 ft 338 kts 179°
2026-05-08 07:34 1.03206 104.23994 12290 ft 343 kts 180°
2026-05-08 07:34 1.00826 104.23929 12875 ft 347 kts 181°
2026-05-08 07:34 0.98380 104.23865 13519 ft 350 kts 180°
2026-05-08 07:34 0.95971 104.23813 14156 ft 350 kts 180°
2026-05-08 07:35 0.93533 104.23770 14755 ft 351 kts 180°
2026-05-08 07:35 0.91075 104.23733 15310 ft 354 kts 179°
2026-05-08 07:35 0.88596 104.23699 15830 ft 358 kts 179°
2026-05-08 07:35 0.86089 104.23666 16362 ft 362 kts 179°
2026-05-08 07:36 0.83587 104.23633 16887 ft 365 kts 179°
2026-05-08 07:36 0.81038 104.23640 17384 ft 368 kts 173°
2026-05-08 07:36 0.78559 104.24307 17772 ft 371 kts 152°
2026-05-08 07:36 0.76289 104.25545 18242 ft 374 kts 148°
2026-05-08 07:37 0.74033 104.26872 18683 ft 376 kts 148°
2026-05-08 07:37 0.71789 104.28217 19178 ft 377 kts 147°
2026-05-08 07:37 0.69526 104.29571 19654 ft 379 kts 148°
2026-05-08 07:37 0.67258 104.30920 20098 ft 380 kts 148°
2026-05-08 07:38 0.64997 104.32255 20553 ft 382 kts 148°
2026-05-08 07:38 0.62695 104.33607 21000 ft 384 kts 148°
2026-05-08 07:38 0.60380 104.34962 21433 ft 387 kts 148°
2026-05-08 07:38 0.58039 104.36329 21868 ft 389 kts 148°
2026-05-08 07:39 0.55689 104.37700 22299 ft 391 kts 148°
2026-05-08 07:39 0.53328 104.39076 22720 ft 394 kts 148°
2026-05-08 07:39 0.50970 104.40450 23073 ft 398 kts 148°
2026-05-08 07:39 0.48567 104.41851 23384 ft 402 kts 148°
2026-05-08 07:40 0.46137 104.43267 23681 ft 405 kts 148°
2026-05-08 07:40 0.43688 104.44694 23987 ft 408 kts 148°
2026-05-08 07:40 0.41226 104.46129 24300 ft 410 kts 147°
2026-05-08 07:40 0.38787 104.47550 24641 ft 411 kts 147°
2026-05-08 07:41 0.36306 104.48995 24989 ft 412 kts 147°
2026-05-08 07:41 0.33836 104.50434 25321 ft 413 kts 147°
2026-05-08 07:41 0.31334 104.51892 25622 ft 415 kts 147°
2026-05-08 07:41 0.28833 104.53350 25913 ft 417 kts 147°
2026-05-08 07:42 0.26309 104.54821 26191 ft 420 kts 147°
2026-05-08 07:42 0.23773 104.56299 26471 ft 422 kts 147°
2026-05-08 07:42 0.21262 104.57763 26760 ft 424 kts 147°
2026-05-08 07:42 0.18707 104.59252 27054 ft 426 kts 147°
2026-05-08 07:43 0.16128 104.60754 27330 ft 428 kts 147°
2026-05-08 07:43 0.13575 104.62242 27596 ft 430 kts 147°
2026-05-08 07:43 0.10978 104.63755 27868 ft 431 kts 147°
2026-05-08 07:43 0.08371 104.65275 28129 ft 433 kts 147°
2026-05-08 07:44 0.05758 104.66797 28392 ft 435 kts 147°
2026-05-08 07:44 0.03129 104.68330 28656 ft 437 kts 147°
2026-05-08 07:44 0.00520 104.69850 28897 ft 439 kts 147°
2026-05-08 07:44 -0.02128 104.71393 29140 ft 441 kts 147°
2026-05-08 07:45 -0.04785 104.72941 29388 ft 442 kts 147°
2026-05-08 07:45 -0.07453 104.74496 29635 ft 444 kts 147°
2026-05-08 07:45 -0.10105 104.76042 29856 ft 446 kts 147°
2026-05-08 07:45 -0.12798 104.77611 30051 ft 447 kts 147°
2026-05-08 07:46 -0.15499 104.79185 30237 ft 449 kts 147°
2026-05-08 07:46 -0.18209 104.80764 30435 ft 450 kts 147°
2026-05-08 07:46 -0.20893 104.82329 30621 ft 451 kts 147°
2026-05-08 07:46 -0.23605 104.83910 30800 ft 453 kts 147°
2026-05-08 07:47 -0.26334 104.85500 31004 ft 454 kts 147°
2026-05-08 07:47 -0.29067 104.87109 31160 ft 455 kts 146°
2026-05-08 07:47 -0.31739 104.88820 31318 ft 456 kts 144°
2026-05-08 07:47 -0.34347 104.90584 31471 ft 457 kts 143°
2026-05-08 07:48 -0.36962 104.92390 31651 ft 458 kts 143°
2026-05-08 07:48 -0.39602 104.94219 31779 ft 460 kts 143°
2026-05-08 07:48 -0.42245 104.96041 31923 ft 462 kts 143°
2026-05-08 07:48 -0.44870 104.97838 32100 ft 462 kts 143°
2026-05-08 07:49 -0.47529 104.99649 32303 ft 462 kts 143°
2026-05-08 07:49 -0.50189 105.01452 32484 ft 462 kts 143°
2026-05-08 07:49 -0.52867 105.03265 32611 ft 464 kts 143°
2026-05-08 07:49 -0.55546 105.05077 32764 ft 465 kts 143°
2026-05-08 07:50 -0.58240 105.06899 32950 ft 465 kts 144°
2026-05-08 07:50 -0.60882 105.08685 33133 ft 465 kts 144°
2026-05-08 07:50 -0.63567 105.10501 33345 ft 464 kts 144°
2026-05-08 07:50 -0.66229 105.12301 33576 ft 463 kts 144°
2026-05-08 07:51 -0.68902 105.14110 33820 ft 461 kts 144°
2026-05-08 07:51 -0.71564 105.15911 34029 ft 460 kts 144°
2026-05-08 07:51 -0.74218 105.17707 34181 ft 460 kts 144°
2026-05-08 07:51 -0.76843 105.19483 34351 ft 460 kts 144°
2026-05-08 07:52 -0.79500 105.21281 34546 ft 459 kts 144°
2026-05-08 07:52 -0.82158 105.23081 34733 ft 459 kts 144°
2026-05-08 07:52 -0.84772 105.24850 34884 ft 459 kts 144°
2026-05-08 07:52 -0.87415 105.26638 35033 ft 459 kts 144°
2026-05-08 07:53 -0.90069 105.28434 35205 ft 459 kts 144°
2026-05-08 07:53 -0.92694 105.30211 35371 ft 459 kts 144°
2026-05-08 07:53 -0.95338 105.32000 35524 ft 459 kts 144°
2026-05-08 07:53 -0.97990 105.33796 35674 ft 459 kts 144°
2026-05-08 07:54 -1.00654 105.35598 35827 ft 459 kts 144°
2026-05-08 07:54 -1.03301 105.37390 35981 ft 459 kts 144°
2026-05-08 07:54 -1.05916 105.39160 36127 ft 459 kts 144°
2026-05-08 07:54 -1.08568 105.40955 36292 ft 459 kts 144°
2026-05-08 07:55 -1.11209 105.42743 36446 ft 458 kts 144°
2026-05-08 07:55 -1.13862 105.44538 36590 ft 459 kts 144°
2026-05-08 07:55 -1.16483 105.46312 36725 ft 459 kts 144°
2026-05-08 07:56 -1.21799 105.49912 36800 ft 459 kts 144°
2026-05-08 07:56 -1.27062 105.53474 36811 ft 458 kts 144°
2026-05-08 07:57 -1.32324 105.57036 36808 ft 458 kts 144°
2026-05-08 07:57 -1.37613 105.60617 36808 ft 458 kts 144°
2026-05-08 07:58 -1.42892 105.64191 36809 ft 457 kts 144°
2026-05-08 07:58 -1.48129 105.67737 36813 ft 457 kts 144°
2026-05-08 07:59 -1.53406 105.71311 36806 ft 457 kts 144°
2026-05-08 07:59 -1.58656 105.74866 36808 ft 457 kts 144°
2026-05-08 08:00 -1.63918 105.78430 36809 ft 457 kts 144°
2026-05-08 08:00 -1.69173 105.81989 36807 ft 457 kts 144°
2026-05-08 08:01 -1.74451 105.85564 36806 ft 457 kts 144°
2026-05-08 08:01 -1.79694 105.89116 36802 ft 457 kts 144°
2026-05-08 08:02 -1.84968 105.92689 36807 ft 457 kts 144°
2026-05-08 08:02 -1.90107 105.96170 36807 ft 458 kts 144°
2026-05-08 08:03 -1.95361 105.99731 36803 ft 458 kts 144°
2026-05-08 08:03 -2.00580 106.03267 36801 ft 459 kts 144°
2026-05-08 08:04 -2.05874 106.06856 36803 ft 459 kts 144°
2026-05-08 08:04 -2.11170 106.10445 36806 ft 460 kts 144°
2026-05-08 08:05 -2.16645 106.13711 36804 ft 463 kts 155°
2026-05-08 08:05 -2.22907 106.15415 36818 ft 467 kts 168°
2026-05-08 08:06 -2.29304 106.16446 36805 ft 468 kts 169°
2026-05-08 08:06 -2.35760 106.17483 36799 ft 468 kts 168°
2026-05-08 08:07 -2.42155 106.18553 36803 ft 468 kts 168°
2026-05-08 08:07 -2.48590 106.19653 36803 ft 468 kts 168°
2026-05-08 08:08 -2.55040 106.20759 36805 ft 468 kts 168°
2026-05-08 08:08 -2.61419 106.21853 36804 ft 468 kts 168°
2026-05-08 08:09 -2.67845 106.22952 36801 ft 468 kts 168°
2026-05-08 08:09 -2.73194 106.23868 36805 ft 468 kts 168°
2026-05-08 08:10 -2.79621 106.24968 36803 ft 468 kts 168°
2026-05-08 08:10 -2.86016 106.26063 36805 ft 468 kts 168°
2026-05-08 08:11 -2.92424 106.27160 36807 ft 468 kts 168°
2026-05-08 08:11 -2.98862 106.28262 36809 ft 469 kts 168°
2026-05-08 08:12 -3.05299 106.29364 36810 ft 469 kts 168°
2026-05-08 08:12 -3.11726 106.30465 36812 ft 470 kts 168°
2026-05-08 08:13 -3.18280 106.30689 36820 ft 474 kts 185°
2026-05-08 08:13 -3.24728 106.29234 36813 ft 477 kts 194°
2026-05-08 08:13 -3.27970 106.28533 36777 ft 474 kts 180°
2026-05-08 08:14 -3.31172 106.28869 36821 ft 467 kts 160°
2026-05-08 08:14 -3.34084 106.30234 36819 ft 460 kts 143°
2026-05-08 08:14 -3.36788 106.31976 36813 ft 462 kts 147°
2026-05-08 08:15 -3.42453 106.35047 36812 ft 466 kts 150°
2026-05-08 08:15 -3.48282 106.37988 36810 ft 468 kts 151°
2026-05-08 08:16 -3.54083 106.40906 36813 ft 469 kts 151°
2026-05-08 08:16 -3.59938 106.43879 36816 ft 471 kts 151°
2026-05-08 08:17 -3.65757 106.46850 36811 ft 472 kts 151°
2026-05-08 08:17 -3.71579 106.49827 36816 ft 472 kts 151°
2026-05-08 08:18 -3.77439 106.52823 36808 ft 471 kts 151°
2026-05-08 08:18 -3.83275 106.55806 36811 ft 470 kts 151°
2026-05-08 08:19 -3.89099 106.58783 36817 ft 468 kts 151°
2026-05-08 08:19 -3.94874 106.61736 36815 ft 467 kts 151°
2026-05-08 08:20 -4.00657 106.64693 36816 ft 466 kts 151°
2026-05-08 08:20 -4.06400 106.67630 36819 ft 465 kts 151°
2026-05-08 08:21 -4.12174 106.70584 36818 ft 465 kts 151°
2026-05-08 08:21 -4.17939 106.73533 36817 ft 465 kts 151°
2026-05-08 08:22 -4.23715 106.76489 36816 ft 466 kts 151°
2026-05-08 08:22 -4.29462 106.79431 36819 ft 467 kts 151°
2026-05-08 08:23 -4.35259 106.82398 36818 ft 469 kts 151°
2026-05-08 08:23 -4.41071 106.85374 36818 ft 470 kts 151°
2026-05-08 08:23 -4.43996 106.86872 36705 ft 473 kts 151°
2026-05-08 08:24 -4.46944 106.88382 36441 ft 476 kts 151°
2026-05-08 08:24 -4.49901 106.89896 36207 ft 474 kts 151°
2026-05-08 08:24 -4.52827 106.91394 35961 ft 470 kts 151°
2026-05-08 08:24 -4.55732 106.92881 35723 ft 468 kts 152°
2026-05-08 08:25 -4.58640 106.94371 35489 ft 468 kts 152°
2026-05-08 08:25 -4.61538 106.95856 35262 ft 468 kts 152°
2026-05-08 08:25 -4.64440 106.97343 35035 ft 468 kts 152°
2026-05-08 08:25 -4.67335 106.98827 34809 ft 468 kts 152°
2026-05-08 08:26 -4.70198 107.00294 34589 ft 468 kts 152°
2026-05-08 08:26 -4.73097 107.01779 34366 ft 468 kts 152°
2026-05-08 08:26 -4.75999 107.03267 34139 ft 468 kts 152°
2026-05-08 08:26 -4.78897 107.04753 33924 ft 468 kts 152°
2026-05-08 08:27 -4.81813 107.06248 33686 ft 469 kts 152°
2026-05-08 08:27 -4.84725 107.07740 33433 ft 469 kts 152°
2026-05-08 08:27 -4.87626 107.09228 33186 ft 470 kts 152°
2026-05-08 08:27 -4.90540 107.10722 32938 ft 470 kts 152°
2026-05-08 08:28 -4.93454 107.12217 32695 ft 471 kts 152°
2026-05-08 08:28 -4.96376 107.13716 32451 ft 471 kts 152°
2026-05-08 08:28 -4.99295 107.15213 32212 ft 472 kts 152°
2026-05-08 08:28 -5.02223 107.16715 31973 ft 472 kts 152°
2026-05-08 08:29 -5.05151 107.18217 31736 ft 472 kts 152°
2026-05-08 08:29 -5.08034 107.19696 31500 ft 471 kts 152°
2026-05-08 08:29 -5.10948 107.21192 31264 ft 470 kts 152°
2026-05-08 08:29 -5.13843 107.22677 30877 ft 465 kts 152°
2026-05-08 08:30 -5.16711 107.24149 30429 ft 460 kts 152°
2026-05-08 08:30 -5.19552 107.25607 29977 ft 456 kts 152°
2026-05-08 08:30 -5.25166 107.28489 28901 ft 449 kts 152°
2026-05-08 08:31 -5.27934 107.29911 28395 ft 445 kts 152°
2026-05-08 08:31 -5.30686 107.31324 27902 ft 441 kts 152°
2026-05-08 08:31 -5.33401 107.32718 27415 ft 437 kts 152°
2026-05-08 08:31 -5.36093 107.34101 26938 ft 433 kts 152°
2026-05-08 08:32 -5.38770 107.35476 26467 ft 430 kts 152°
2026-05-08 08:32 -5.41424 107.36840 25989 ft 427 kts 152°
2026-05-08 08:32 -5.44061 107.38195 25503 ft 425 kts 152°
2026-05-08 08:32 -5.46685 107.39544 25019 ft 423 kts 152°
2026-05-08 08:33 -5.49291 107.40883 24548 ft 421 kts 152°
2026-05-08 08:33 -5.51897 107.42222 24072 ft 419 kts 152°
2026-05-08 08:33 -5.54484 107.43552 23600 ft 417 kts 152°
2026-05-08 08:33 -5.57068 107.44881 23072 ft 416 kts 152°
2026-05-08 08:34 -5.59639 107.46203 22567 ft 413 kts 152°
2026-05-08 08:34 -5.62126 107.47481 22093 ft 409 kts 152°
2026-05-08 08:34 -5.64678 107.48793 21747 ft 403 kts 152°
2026-05-08 08:34 -5.67144 107.50061 21443 ft 395 kts 152°
2026-05-08 08:35 -5.69548 107.51298 21048 ft 391 kts 152°
2026-05-08 08:35 -5.71962 107.52540 20602 ft 389 kts 152°
2026-05-08 08:35 -5.74359 107.53773 20164 ft 386 kts 152°
2026-05-08 08:35 -5.76739 107.54998 19775 ft 382 kts 152°
2026-05-08 08:36 -5.79095 107.56211 19371 ft 379 kts 152°
2026-05-08 08:36 -5.81435 107.57415 18971 ft 376 kts 152°
2026-05-08 08:36 -5.83746 107.58605 18584 ft 373 kts 152°
2026-05-08 08:36 -5.86047 107.59789 18201 ft 370 kts 153°
2026-05-08 08:37 -5.88332 107.60965 17767 ft 367 kts 153°
2026-05-08 08:37 -5.90604 107.62119 17325 ft 365 kts 156°
2026-05-08 08:37 -5.93048 107.62745 16839 ft 364 kts 176°
2026-05-08 08:37 -5.95561 107.62479 16413 ft 364 kts 195°
2026-05-08 08:38 -5.97841 107.61412 15999 ft 364 kts 212°
2026-05-08 08:38 -5.99699 107.59691 15631 ft 363 kts 231°
2026-05-08 08:38 -6.01106 107.57633 15536 ft 352 kts 235°
2026-05-08 08:38 -6.02400 107.55592 15445 ft 340 kts 236°
2026-05-08 08:39 -6.03646 107.53618 15365 ft 326 kts 236°
2026-05-08 08:39 -6.04845 107.51749 15203 ft 312 kts 235°
2026-05-08 08:39 -6.06007 107.49960 15021 ft 300 kts 234°
2026-05-08 08:39 -6.07131 107.48239 14780 ft 291 kts 234°
2026-05-08 08:40 -6.08240 107.46546 14367 ft 295 kts 235°
2026-05-08 08:40 -6.09380 107.44803 13976 ft 302 kts 235°
2026-05-08 08:40 -6.10540 107.43026 13616 ft 305 kts 235°
2026-05-08 08:40 -6.11700 107.41247 13420 ft 306 kts 235°
2026-05-08 08:41 -6.12868 107.39457 13195 ft 304 kts 235°
2026-05-08 08:41 -6.14025 107.37682 12995 ft 301 kts 234°
2026-05-08 08:41 -6.15170 107.35925 12717 ft 300 kts 234°
2026-05-08 08:41 -6.16313 107.34171 12394 ft 300 kts 235°
2026-05-08 08:42 -6.17455 107.32421 12132 ft 297 kts 235°
2026-05-08 08:42 -6.18586 107.30687 11833 ft 297 kts 235°
2026-05-08 08:42 -6.19720 107.28947 11478 ft 298 kts 235°
2026-05-08 08:42 -6.20842 107.27185 11106 ft 299 kts 236°
2026-05-08 08:43 -6.21951 107.25425 10702 ft 296 kts 236°
2026-05-08 08:43 -6.23027 107.23713 10314 ft 292 kts 236°
2026-05-08 08:43 -6.24105 107.22003 9932 ft 288 kts 236°
2026-05-08 08:43 -6.25173 107.20309 9530 ft 285 kts 236°
2026-05-08 08:44 -6.26230 107.18632 9094 ft 282 kts 236°
2026-05-08 08:44 -6.27275 107.16977 8681 ft 281 kts 236°
2026-05-08 08:44 -6.28329 107.15308 8317 ft 284 kts 236°
2026-05-08 08:44 -6.29380 107.13644 8114 ft 279 kts 236°
2026-05-08 08:45 -6.30404 107.11997 7874 ft 276 kts 236°
2026-05-08 08:45 -6.31416 107.10349 7599 ft 275 kts 237°
2026-05-08 08:45 -6.32419 107.08712 7171 ft 281 kts 237°
2026-05-08 08:45 -6.33458 107.07016 6736 ft 287 kts 237°
2026-05-08 08:46 -6.34507 107.05304 6289 ft 285 kts 237°
2026-05-08 08:46 -6.35545 107.03611 5835 ft 283 kts 238°
2026-05-08 08:46 -6.36541 107.01987 5699 ft 269 kts 238°
2026-05-08 08:46 -6.37503 107.00419 5614 ft 254 kts 238°
2026-05-08 08:47 -6.38412 106.98938 5514 ft 241 kts 238°
2026-05-08 08:47 -6.39258 106.97558 5414 ft 228 kts 238°
2026-05-08 08:47 -6.40076 106.96226 5197 ft 221 kts 238°
2026-05-08 08:47 -6.40639 106.94812 5002 ft 213 kts 260°
2026-05-08 08:48 -6.40877 106.93398 4876 ft 201 kts 260°
2026-05-08 08:48 -6.41117 106.92037 4783 ft 196 kts 260°
2026-05-08 08:48 -6.41358 106.90696 4693 ft 193 kts 260°
2026-05-08 08:48 -6.41595 106.89386 4613 ft 192 kts 260°
2026-05-08 08:49 -6.41835 106.88070 4536 ft 191 kts 260°
2026-05-08 08:49 -6.42077 106.86757 4449 ft 190 kts 260°
2026-05-08 08:49 -6.42318 106.85454 4388 ft 190 kts 260°
2026-05-08 08:49 -6.42561 106.84146 4308 ft 190 kts 260°
2026-05-08 08:50 -6.42803 106.82838 4233 ft 191 kts 260°
2026-05-08 08:50 -6.43048 106.81520 4155 ft 192 kts 260°
2026-05-08 08:50 -6.43288 106.80195 4074 ft 192 kts 264°
2026-05-08 08:50 -6.43050 106.78894 3928 ft 192 kts 304°
2026-05-08 08:51 -6.42057 106.78091 3802 ft 186 kts 336°
2026-05-08 08:51 -6.40881 106.77567 3664 ft 181 kts 336°
2026-05-08 08:51 -6.39738 106.77050 3480 ft 178 kts 336°
2026-05-08 08:51 -6.38627 106.76548 3317 ft 174 kts 336°
2026-05-08 08:52 -6.37512 106.76043 3171 ft 176 kts 336°
2026-05-08 08:52 -6.36406 106.75544 3013 ft 177 kts 336°
2026-05-08 08:52 -6.35371 106.75076 2857 ft 175 kts 336°
2026-05-08 08:52 -6.34264 106.74576 2684 ft 173 kts 336°
2026-05-08 08:53 -6.33083 106.74419 2526 ft 176 kts 16°
2026-05-08 08:53 -6.32117 106.75138 2495 ft 175 kts 60°
2026-05-08 08:53 -6.31733 106.76256 2486 ft 169 kts 72°
2026-05-08 08:53 -6.31397 106.77377 2488 ft 167 kts 72°
2026-05-08 08:54 -6.31047 106.78549 2045 ft 176 kts 72°
2026-05-08 08:54 -6.30709 106.79697 1773 ft 164 kts 71°
2026-05-08 08:54 -6.30393 106.80767 1590 ft 156 kts 71°
2026-05-08 08:54 -6.30036 106.81789 1433 ft 159 kts 63°
2026-05-08 08:55 -6.29561 106.82824 1209 ft 164 kts 62°
2026-05-08 08:55 -6.29078 106.83862 998 ft 163 kts 62°
2026-05-08 08:55 -6.28603 106.84885 768 ft 159 kts 62°
2026-05-08 08:55 -6.28290 106.85561 616 ft 160 kts 62°
2026-05-08 08:56 -6.27813 106.86601 422 ft 167 kts 64°
2026-05-08 08:56 -6.27337 106.87662 215 ft 164 kts 63°
2026-05-08 08:56 -6.26872 106.88645 91 ft 143 kts 64°
2026-05-08 08:56 -6.26517 106.89420 94 ft 101 kts 65°
2026-05-08 08:57 -6.26316 106.89845 95 ft 47 kts 63°
2026-05-08 08:57 -6.26200 106.90080 95 ft 7 kts 85°
2026-05-08 08:57 -6.26201 106.90087 96 ft 0 kts 102°
2026-05-08 08:57 -6.26208 106.90088 95 ft 2 kts 165°
2026-05-08 08:58 -6.26236 106.90068 94 ft 6 kts 243°
2026-05-08 08:58 -6.26258 106.89993 95 ft 16 kts 255°
2026-05-08 08:58 -6.26311 106.89866 94 ft 24 kts 245°
2026-05-08 08:58 -6.26393 106.89690 93 ft 31 kts 245°
2026-05-08 08:59 -6.26493 106.89472 92 ft 37 kts 245°
2026-05-08 08:59 -6.26581 106.89264 93 ft 26 kts 269°
2026-05-08 08:59 -6.26547 106.89160 94 ft 14 kts 290°
2026-05-08 08:59 -6.26533 106.89121 93 ft 0 kts 290°
2026-05-08 09:00 -6.26532 106.89120 93 ft 1 kts 290°
2026-05-08 09:01 -6.26525 106.89098 94 ft 6 kts 290°
2026-05-08 09:01 -6.26513 106.89067 95 ft 8 kts 290°
2026-05-08 09:01 -6.26504 106.89043 93 ft 8 kts 290°
2026-05-08 09:01 -6.26496 106.89021 92 ft 8 kts 289°
2026-05-08 09:02 -6.26495 106.88997 92 ft 8 kts 262°
2026-05-08 09:02 -6.26512 106.88953 92 ft 8 kts 244°
2026-05-08 09:02 -6.26534 106.88906 92 ft 5 kts 252°
2026-05-08 09:02 -6.26526 106.88890 95 ft 1 kts 326°
2026-05-08 09:03 -6.26517 106.88885 94 ft 2 kts 329°
2026-05-08 09:03 -6.26496 106.88874 93 ft 1 kts 335°